TimeCDT,TemperatureF,Dew PointF,Humidity,Sea Level PressureIn,VisibilityMPH,Wind Direction,Wind SpeedMPH,Gust SpeedMPH,PrecipitationIn,Events,Conditions,WindDirDegrees,DateUTC
12:35 AM,71.6,60.8,69,29.77,10.0,WNW,15.0,23.0,N/A,,Clear,290,2013-06-13 05:35:00
12:55 AM,71.6,60.8,69,29.77,10.0,WNW,16.1,24.2,N/A,,Mostly Cloudy,290,2013-06-13 05:55:00
1:15 AM,69.8,60.8,73,29.78,10.0,WNW,19.6,26.5,N/A,,Overcast,290,2013-06-13 06:15:00
1:35 AM,69.8,62.6,78,29.78,10.0,West,18.4,27.6,N/A,,Overcast,280,2013-06-13 06:35:00
1:55 AM,66.2,64.4,94,29.79,4.0,West,16.1,27.6,N/A,,Overcast,280,2013-06-13 06:55:00
2:15 AM,66.2,64.4,94,29.79,10.0,West,15.0,21.9,N/A,,Overcast,280,2013-06-13 07:15:00
2:35 AM,68.0,64.4,88,29.80,10.0,WNW,13.8,24.2,N/A,,Overcast,290,2013-06-13 07:35:00
2:55 AM,68.0,64.4,88,29.80,10.0,WNW,16.1,23.0,N/A,,Overcast,300,2013-06-13 07:55:00
3:15 AM,69.8,66.2,88,29.81,10.0,NW,13.8,18.4,N/A,,Overcast,310,2013-06-13 08:15:00
3:35 AM,69.8,66.2,88,29.82,10.0,North,15.0,20.7,N/A,,Overcast,350,2013-06-13 08:35:00
3:55 AM,69.8,66.2,88,29.83,10.0,North,17.3,28.8,N/A,,Overcast,350,2013-06-13 08:55:00
4:15 AM,69.8,66.2,88,29.83,10.0,NNW,19.6,26.5,N/A,,Overcast,340,2013-06-13 09:15:00
4:35 AM,69.8,66.2,88,29.86,10.0,NNW,15.0,23.0,N/A,,Overcast,340,2013-06-13 09:35:00
4:55 AM,69.8,64.4,83,29.87,10.0,North,15.0,19.6,N/A,,Overcast,350,2013-06-13 09:55:00
5:15 AM,69.8,64.4,83,29.88,10.0,North,16.1,20.7,N/A,,Overcast,350,2013-06-13 10:15:00
5:35 AM,68.0,62.6,83,29.89,10.0,North,11.5,19.6,N/A,,Overcast,350,2013-06-13 10:35:00
5:55 AM,68.0,62.6,83,29.89,10.0,North,15.0,19.6,N/A,,Overcast,350,2013-06-13 10:55:00
6:15 AM,66.2,62.6,88,29.91,10.0,North,17.3,21.9,N/A,,Overcast,360,2013-06-13 11:15:00
6:35 AM,66.2,62.6,88,29.93,10.0,NNW,13.8,24.2,N/A,,Overcast,340,2013-06-13 11:35:00
6:55 AM,66.2,62.6,88,29.94,10.0,North,11.5,19.6,N/A,,Overcast,350,2013-06-13 11:55:00
7:15 AM,66.2,62.6,88,29.96,10.0,NNW,12.7,16.1,N/A,,Overcast,340,2013-06-13 12:15:00
7:35 AM,68.0,62.6,83,29.96,10.0,North,12.7,18.4,N/A,,Scattered Clouds,350,2013-06-13 12:35:00
7:55 AM,69.8,60.8,73,29.96,10.0,North,9.2,-,N/A,,Clear,360,2013-06-13 12:55:00
8:15 AM,69.8,60.8,73,29.98,10.0,North,8.1,11.5,N/A,,Clear,350,2013-06-13 13:15:00
8:35 AM,71.6,57.2,60,29.98,10.0,North,13.8,-,N/A,,Clear,350,2013-06-13 13:35:00
8:55 AM,71.6,57.2,60,30.00,10.0,North,10.4,-,N/A,,Clear,350,2013-06-13 13:55:00
9:15 AM,73.4,55.4,53,30.01,10.0,North,8.1,-,N/A,,Clear,350,2013-06-13 14:15:00
9:35 AM,73.4,51.8,47,30.00,10.0,NNE,13.8,18.4,N/A,,Clear,20,2013-06-13 14:35:00
9:55 AM,75.2,53.6,47,30.01,10.0,North,13.8,-,N/A,,Clear,10,2013-06-13 14:55:00
10:15 AM,77.0,51.8,41,30.01,10.0,North,10.4,16.1,N/A,,Clear,10,2013-06-13 15:15:00
10:35 AM,77.0,51.8,41,30.01,10.0,North,10.4,-,N/A,,Clear,10,2013-06-13 15:35:00
10:55 AM,78.8,51.8,39,30.01,10.0,North,10.4,-,N/A,,Clear,360,2013-06-13 15:55:00
11:15 AM,78.8,50.0,36,30.01,10.0,North,11.5,-,N/A,,Clear,10,2013-06-13 16:15:00
11:35 AM,78.8,48.2,34,30.01,10.0,NNE,10.4,16.1,N/A,,Clear,30,2013-06-13 16:35:00
11:55 AM,78.8,48.2,34,30.02,10.0,North,5.8,-,N/A,,Clear,10,2013-06-13 16:55:00
12:15 PM,80.6,51.8,37,30.03,10.0,North,9.2,-,N/A,,Clear,350,2013-06-13 17:15:00
12:35 PM,80.6,50.0,34,30.03,10.0,North,10.4,-,N/A,,Clear,360,2013-06-13 17:35:00
12:55 PM,82.4,50.0,32,30.03,10.0,NNE,8.1,-,N/A,,Clear,30,2013-06-13 17:55:00
1:15 PM,82.4,51.8,35,30.03,10.0,NE,6.9,-,N/A,,Clear,40,2013-06-13 18:15:00
1:35 PM,82.4,50.0,32,30.03,10.0,NE,4.6,-,N/A,,Clear,50,2013-06-13 18:35:00
1:55 PM,82.4,51.8,35,30.02,10.0,North,6.9,-,N/A,,Clear,350,2013-06-13 18:55:00
2:15 PM,82.4,50.0,32,30.02,10.0,Calm,Calm,-,N/A,,Clear,0,2013-06-13 19:15:00
2:35 PM,82.4,51.8,35,30.02,10.0,NW,10.4,-,N/A,,Scattered Clouds,310,2013-06-13 19:35:00
2:55 PM,84.2,51.8,33,30.01,10.0,NNE,8.1,-,N/A,,Scattered Clouds,20,2013-06-13 19:55:00
3:15 PM,84.2,51.8,33,30.01,10.0,NNE,6.9,-,N/A,,Overcast,30,2013-06-13 20:15:00
3:35 PM,82.4,51.8,35,30.01,10.0,NNW,5.8,-,N/A,,Scattered Clouds,330,2013-06-13 20:35:00
3:55 PM,86.0,51.8,31,30.00,10.0,NNE,8.1,17.3,N/A,,Scattered Clouds,30,2013-06-13 20:55:00
4:15 PM,84.2,50.0,30,30.00,10.0,NNE,8.1,-,N/A,,Scattered Clouds,30,2013-06-13 21:15:00
4:35 PM,84.2,50.0,30,30.00,10.0,North,5.8,-,N/A,,Scattered Clouds,360,2013-06-13 21:35:00
4:55 PM,84.2,48.2,29,30.00,10.0,Calm,Calm,-,N/A,,Clear,0,2013-06-13 21:55:00
5:15 PM,84.2,50.0,30,30.01,7.0,Calm,Calm,-,N/A,,Mostly Cloudy,0,2013-06-13 22:15:00
5:35 PM,86.0,53.6,33,30.01,4.0,Calm,Calm,-,N/A,,Haze,0,2013-06-13 22:35:00
5:55 PM,84.2,51.8,33,30.02,10.0,WNW,8.1,-,N/A,,Scattered Clouds,290,2013-06-13 22:55:00
6:15 PM,84.2,51.8,33,30.02,10.0,West,6.9,-,N/A,,Clear,280,2013-06-13 23:15:00
6:35 PM,84.2,53.6,35,30.03,10.0,NNW,3.5,-,N/A,,Scattered Clouds,330,2013-06-13 23:35:00
6:55 PM,82.4,55.4,39,30.02,10.0,NNW,4.6,-,N/A,,Mostly Cloudy,330,2013-06-13 23:55:00
7:15 PM,82.4,55.4,39,30.02,10.0,NNW,8.1,-,N/A,,Scattered Clouds,340,2013-06-14 00:15:00
7:35 PM,80.6,55.4,42,30.02,10.0,NNW,5.8,-,N/A,,Scattered Clouds,340,2013-06-14 00:35:00
7:55 PM,78.8,57.2,47,30.02,10.0,NNW,4.6,-,N/A,,Clear,340,2013-06-14 00:55:00
8:15 PM,77.0,57.2,50,30.02,10.0,North,3.5,-,N/A,,Clear,350,2013-06-14 01:15:00
8:35 PM,75.2,62.6,65,30.02,10.0,Calm,Calm,-,N/A,,Clear,0,2013-06-14 01:35:00
8:55 PM,73.4,60.8,65,30.01,10.0,Calm,Calm,-,N/A,,Clear,0,2013-06-14 01:55:00
9:15 PM,71.6,59.0,64,30.01,10.0,Calm,Calm,-,N/A,,Clear,0,2013-06-14 02:15:00
9:35 PM,71.6,57.2,60,30.00,10.0,Calm,Calm,-,N/A,,Clear,0,2013-06-14 02:35:00
9:55 PM,73.4,57.2,57,30.00,10.0,ENE,5.8,-,N/A,,Clear,70,2013-06-14 02:55:00
10:15 PM,73.4,57.2,57,29.99,10.0,ENE,4.6,-,N/A,,Clear,70,2013-06-14 03:15:00
10:35 PM,73.4,57.2,57,29.99,10.0,ENE,4.6,-,N/A,,Clear,60,2013-06-14 03:35:00
10:55 PM,71.6,57.2,60,29.99,10.0,ENE,3.5,-,N/A,,Clear,60,2013-06-14 03:55:00
11:15 PM,71.6,57.2,60,29.99,10.0,ENE,3.5,-,N/A,,Clear,70,2013-06-14 04:15:00
11:35 PM,71.6,57.2,60,29.99,10.0,ENE,4.6,-,N/A,,Clear,60,2013-06-14 04:35:00
11:55 PM,69.8,57.2,64,30.00,10.0,ENE,5.8,-,N/A,,Clear,70,2013-06-14 04:55:00